Location: Moscow
(55.7500°N, 37.5830°E)
Time: 22:40:13
(UTC+03:00)

COSMOS 2251 DEB - Pass Details

Date: 06 July 2022
Orbit: 738 x 847 km, 74.1° (Epoch: 17 August)

Event Time Altitude Azimuth Distance (km) Brightness Sun altitude
Rises 23:32:42 0° 312° (NW) 3,282 ? -10.5°
Reaches altitude 10° 23:37:50 10° 354° (N) 2,319 ? -10.7°
Maximum altitude 23:38:34 10° 2° (N) 2,297 ? -10.7°
Drops below altitude 10° 23:39:18 10° 10° (N) 2,310 ? -10.8°
Sets 23:44:20 0° 53° (NE) 3,208 ? -10.9°
